Location: Kuffner-Sternwarte
(48.2130°N, 16.2960°E)
Time: 22:56:58
(UTC+01:00)

BlueWalker 3 - Visible Passes

Search period start: 17 January 2026 00:00
Search period end: 27 January 2026 00:00
Orbit: 451 x 463 km, 53.2° (Epoch: 17 January)

Date Brightness Start Highest point End Pass type
(mag) Time Alt. Az. Time Alt. Az. Time Alt. Az.
20 Jan 3.7 18:58:07 10° SSW 18:59:37 21° SSW 18:59:37 21° SSW visible
21 Jan 2.9 18:22:59 10° SSW 18:26:00 28° SE 18:26:00 28° SE visible
22 Jan 3.2 17:47:56 10° S 17:50:47 22° SE 17:52:19 17° E visible
22 Jan 3.9 19:24:24 10° WSW 19:26:04 26° WSW 19:26:04 26° WSW visible
23 Jan 3.6 17:13:00 10° S 17:15:29 18° SE 17:17:58 10° E visible
23 Jan 1.8 18:48:59 10° WSW 18:52:18 75° WSW 18:52:18 75° WSW visible
24 Jan 1.7 18:13:36 10° SW 18:17:09 75° SSE 18:18:27 37° ENE visible
24 Jan 4.8 19:51:29 10° W 19:52:11 15° WNW 19:52:11 15° WNW visible
25 Jan 1.9 17:38:13 10° SW 17:41:44 61° SSE 17:44:33 15° ENE visible
25 Jan 3.4 19:15:57 10° W 19:18:17 32° WNW 19:18:17 32° WNW visible
26 Jan 2.3 18:40:25 10° W 18:43:52 47° NNW 18:44:20 44° N visible
